Location: *
(35.8942°N, 23.3025°E)
Time: 09:23:13
(UTC+00:00)

Envisat - Visible Passes

Search period start: 02 December 2021 00:00
Search period end: 12 December 2021 00:00
Orbit: 764 x 766 km, 98.2° (Epoch: 01 December)

Date Brightness Start Highest point End Pass type
(mag) Time Alt. Az. Time Alt. Az. Time Alt. Az.
02 Dec 2.9 03:30:36 10° N 03:35:42 84° WNW 03:40:47 10° SSW visible
03 Dec 4.2 02:54:02 10° NNE 02:58:48 40° E 03:03:33 10° SSE visible
03 Dec 4.2 04:33:48 10° NNW 04:37:30 21° WNW 04:41:11 10° WSW visible
03 Dec 5.8 15:45:52 10° SW 15:49:33 20° W 15:53:14 10° NW visible
04 Dec 5.6 02:18:24 10° NE 02:21:43 17° E 02:25:01 10° SE visible
04 Dec 3.2 03:56:05 10° N 04:00:56 46° WNW 04:05:45 10° SW visible
05 Dec 3.1 03:19:04 10° NNE 03:24:10 75° ESE 03:29:13 10° S visible
05 Dec 6.5 16:14:16 10° W 16:15:05 10° W 16:15:56 10° W visible
06 Dec 4.7 02:42:42 10° NE 02:47:12 31° E 02:51:40 10° SSE visible
06 Dec 3.9 04:21:53 10° NNW 04:26:03 26° WNW 04:30:13 10° SW visible
07 Dec 5.9 02:07:44 10° ENE 02:10:04 13° E 02:12:23 10° ESE visible
07 Dec 2.9 03:44:24 10° N 03:49:25 60° WNW 03:54:24 10° SSW visible
08 Dec 3.5 03:07:35 10° NNE 03:12:36 57° E 03:17:34 10° S visible
08 Dec 4.5 04:48:15 10° NNW 04:51:05 15° WNW 04:53:54 10° W visible
08 Dec 6.1 16:00:48 10° WSW 16:03:25 14° W 16:06:03 10° WNW visible
09 Dec 5.1 02:31:29 10° NE 02:35:35 24° E 02:39:38 10° SSE visible
09 Dec 3.6 04:10:04 10° N 04:14:35 33° WNW 04:19:06 10° SW visible
10 Dec 2.8 03:32:48 10° N 03:37:53 78° WNW 03:42:57 10° SSW visible
11 Dec 4.1 02:56:10 10° NNE 03:01:01 44° E 03:05:49 10° S visible
11 Dec 4.2 04:36:07 10° NNW 04:39:38 19° WNW 04:43:10 10° WSW visible
11 Dec 5.9 15:48:17 10° SW 15:51:45 18° W 15:55:15 10° NW visible
